User: anonymous   Login
Location: Anciles
(42.5833°N, 0.5167°E)
Time: 07:43:43
(UTC+00:00)
Language:

Cosmos 2219 Rocket - Orbit

View from above orbital plane
View from above orbital plane
View from above satellite
View from above satellite

Ground track
Ground track

The orbit data is extracted from the following two-line orbital elements,

1 22220U 92076B   20049.73788943  .00000083  00000-0  65629-4 0  9999
2 22220  71.0006 163.5923 0014631 230.9760 233.2249 14.16450210409052
Epoch (UTC): 18 February 2020 17:42:33
Eccentricity: 0.0014631
inclination: 71.0006°
perigee height: 827 km
apogee height: 848 km
right ascension of ascending node: 163.5923°
argument of perigee: 230.9760°
revolutions per day: 14.16450210
mean anomaly at epoch: 233.2249°
orbit number at epoch: 40905

The dashed part of the orbit path shows where the satellite is in the earth's shadow,  

DLR